Torna al catalogo

DELTA 1 DEB

YO

AttivoLEO
NORAD 227·DEBRIS·🇺🇸 United States

Lanciato Feb 8, 1962 da Cape Canaveral Space Force Station

Loading…

Prossimi Passaggi (prossime 24 ore)

TLE

AggiornatoSource: Space-Track

Epoca: Sep 5, 2026, 07:43 UTC

1 00227U 62002B   26248.32201323 -.00000055  00000-0  34772-4 0  9997
2 00227  48.1485 349.2354 0126718  30.0082 330.7999 14.40823826355855

Traccia DELTA 1 DEB in tempo reale con AllMySat

Download on the App Store